When you browse on this site, cookies collect data to enhance your experience and personalize the content and advertising you see.
Visit our Privacy Policy to learn more. By continuing to use the site, you agree to this use of cookies and data.
  • In Latvia
  • List of Countries
  • For 7 days
  • Water Temperature
  • Satellite Maps
  • Weather Map
  • Weather Widgets
  • user-avatar
    Login

    Hourly Weather Egna

    Today, 17 January, Thursday

    Time Temperature Precipitation Wind Pressure Humidity
    00:00 -8°C° 0 mm 4 mps 731 mmHg 90%
    01:00 -8°C° 0 mm 4 mps 731 mmHg 90%
    02:00 -8°C° 0 mm 4 mps 731 mmHg 89%
    03:00 -8°C° 0 mm 4 mps 731 mmHg 89%
    04:00 -9°C° 0 mm 4 mps 732 mmHg 88%
    05:00 -9°C° 0 mm 4 mps 732 mmHg 87%
    06:00 -9°C° 0 mm 3 mps 732 mmHg 88%
    07:00 -10°C° 0 mm 3 mps 732 mmHg 89%
    08:00 -10°C° 0 mm 3 mps 731 mmHg 89%
    09:00 -11°C° 0 mm 4 mps 731 mmHg 89%
    10:00 -11°C° 0 mm 4 mps 730 mmHg 88%
    11:00 -11°C° 0 mm 4 mps 730 mmHg 88%
    12:00 -12°C° 0.4 mm 5 mps 729 mmHg 89%
    13:00 -11°C° 0.4 mm 5 mps 728 mmHg 90%
    14:00 -10°C° 0.4 mm 5 mps 727 mmHg 91%
    15:00 -8°C° 0.6 mm 5 mps 726 mmHg 90%
    16:00 -6°C° 0.6 mm 5 mps 726 mmHg 90%
    17:00 -5°C° 0.6 mm 6 mps 725 mmHg 89%
    18:00 -4°C° 0.3 mm 6 mps 724 mmHg 88%
    19:00 -3°C° 0.3 mm 6 mps 723 mmHg 88%
    20:00 -2°C° 0.3 mm 6 mps 723 mmHg 87%
    21:00 -2°C° 0.6 mm 6 mps 722 mmHg 87%
    22:00 -2°C° 0.6 mm 6 mps 722 mmHg 88%
    23:00 -2°C° 0.6 mm 6 mps 722 mmHg 88%

    Tomorrow, 18 January, Friday

    Time Temperature Precipitation Wind Pressure Humidity
    00:00 -1°C° 0.2 mm 5 mps 722 mmHg 87%
    01:00 -1°C° 0.2 mm 5 mps 723 mmHg 87%
    02:00 -1°C° 0.2 mm 5 mps 723 mmHg 86%
    03:00 -2°C° 0 mm 5 mps 724 mmHg 85%
    04:00 -2°C° 0 mm 5 mps 725 mmHg 85%
    05:00 -4°C° 0 mm 5 mps 726 mmHg 85%
    06:00 -5°C° 0 mm 5 mps 726 mmHg 85%
    07:00 -7°C° 0 mm 5 mps 727 mmHg 85%
    08:00 -8°C° 0 mm 4 mps 728 mmHg 85%
    09:00 -9°C° 0 mm 4 mps 729 mmHg 84%
    10:00 -10°C° 0 mm 5 mps 729 mmHg 83%
    11:00 -10°C° 0 mm 5 mps 730 mmHg 82%
    12:00 -10°C° 0 mm 4 mps 731 mmHg 83%
    13:00 -10°C° 0 mm 4 mps 731 mmHg 84%
    14:00 -10°C° 0 mm 4 mps 732 mmHg 85%
    15:00 -10°C° 0 mm 3 mps 732 mmHg 87%
    16:00 -12°C° 0 mm 3 mps 733 mmHg 90%
    17:00 -12°C° 0 mm 2 mps 733 mmHg 92%
    18:00 -13°C° 0 mm 2 mps 733 mmHg 93%
    19:00 -14°C° 0 mm 2 mps 733 mmHg 94%
    20:00 -14°C° 0 mm 2 mps 733 mmHg 96%
    21:00 -14°C° 0 mm 2 mps 733 mmHg 96%
    22:00 -14°C° 0 mm 2 mps 733 mmHg 96%
    23:00 -12°C° 0 mm 1 mps 733 mmHg 96%

    Day after tomorrow, 19 January, Saturday

    Time Temperature Precipitation Wind Pressure Humidity
    00:00 -15°C° 0 mm 2 mps 733 mmHg 96%
    01:00 -15°C° 0 mm 2 mps 734 mmHg 96%
    02:00 -15°C° 0 mm 2 mps 734 mmHg 96%
    03:00 -14°C° 0.1 mm 2 mps 734 mmHg 95%
    04:00 -13°C° 0.1 mm 2 mps 734 mmHg 94%
    05:00 -13°C° 0.1 mm 3 mps 735 mmHg 93%
    06:00 -13°C° 0 mm 3 mps 735 mmHg 92%
    07:00 -13°C° 0 mm 3 mps 735 mmHg 92%
    08:00 -14°C° 0 mm 3 mps 736 mmHg 91%
    09:00 -13°C° 0 mm 3 mps 736 mmHg 91%
    10:00 -13°C° 0 mm 3 mps 737 mmHg 91%
    11:00 -13°C° 0 mm 3 mps 737 mmHg 90%
    12:00 -12°C° 0 mm 3 mps 737 mmHg 90%
    13:00 -12°C° 0 mm 3 mps 737 mmHg 91%
    14:00 -9°C° 0 mm 2 mps 738 mmHg 91%
    15:00 -10°C° 0.1 mm 2 mps 738 mmHg 93%
    16:00 -10°C° 0.1 mm 2 mps 738 mmHg 94%
    17:00 -10°C° 0.1 mm 1 mps 738 mmHg 96%
    18:00 -10°C° 0.1 mm 1 mps 738 mmHg 96%
    19:00 -9°C° 0.1 mm 1 mps 738 mmHg 96%
    20:00 -9°C° 0.1 mm 1 mps 738 mmHg 96%
    21:00 -9°C° 0.1 mm 1 mps 739 mmHg 96%
    22:00 -9°C° 0.1 mm 1 mps 739 mmHg 96%
    23:00 -9°C° 0.1 mm 1 mps 739 mmHg 97%

    20 January, Sunday

    Time Temperature Precipitation Wind Pressure Humidity
    00:00 -8°C° 0.1 mm 1 mps 739 mmHg 96%
    01:00 -9°C° 0.1 mm 2 mps 740 mmHg 95%
    02:00 -9°C° 0.1 mm 2 mps 740 mmHg 95%
    03:00 -8°C° 0 mm 2 mps 740 mmHg 94%
    04:00 -9°C° 0 mm 3 mps 740 mmHg 93%
    05:00 -9°C° 0 mm 3 mps 740 mmHg 92%
    06:00 -9°C° 0 mm 3 mps 739 mmHg 92%
    07:00 -9°C° 0 mm 3 mps 739 mmHg 92%
    08:00 -9°C° 0 mm 3 mps 739 mmHg 92%
    09:00 -8°C° 0.1 mm 3 mps 739 mmHg 90%
    10:00 -8°C° 0.1 mm 3 mps 739 mmHg 89%
    11:00 -8°C° 0.1 mm 4 mps 739 mmHg 88%
    12:00 -8°C° 0.3 mm 4 mps 739 mmHg 89%
    13:00 -8°C° 0.3 mm 4 mps 738 mmHg 90%
    14:00 -8°C° 0.3 mm 4 mps 738 mmHg 90%
    15:00 -8°C° 0.3 mm 4 mps 738 mmHg 91%
    16:00 -8°C° 0.3 mm 3 mps 738 mmHg 92%
    17:00 -8°C° 0.3 mm 3 mps 738 mmHg 93%
    18:00 -8°C° 0.1 mm 3 mps 738 mmHg 94%
    19:00 -8°C° 0.1 mm 2 mps 738 mmHg 94%
    20:00 -9°C° 0.1 mm 2 mps 738 mmHg 95%
    21:00 -9°C° 0 mm 2 mps 738 mmHg 95%
    22:00 -10°C° 0 mm 2 mps 739 mmHg 96%
    23:00 -12°C° 0 mm 2 mps 739 mmHg 96%

    21 January, Monday

    Time Temperature Precipitation Wind Pressure Humidity
    00:00 -13°C° 0 mm 2 mps 739 mmHg 96%
    01:00 -14°C° 0 mm 2 mps 740 mmHg 97%
    02:00 -15°C° 0 mm 2 mps 740 mmHg 97%
    03:00 -16°C° 0 mm 2 mps 740 mmHg 97%
    04:00 -14°C° 0 mm 1 mps 740 mmHg 97%
    05:00 -14°C° 0 mm 1 mps 740 mmHg 97%
    06:00 -14°C° 0 mm 1 mps 740 mmHg 97%
    07:00 -14°C° 0 mm 1 mps 740 mmHg 97%
    08:00 -14°C° 0 mm 1 mps 740 mmHg 97%
    09:00 -15°C° 0 mm 2 mps 740 mmHg 96%
    10:00 -15°C° 0 mm 2 mps 740 mmHg 96%
    11:00 -15°C° 0 mm 2 mps 740 mmHg 95%
    12:00 -15°C° 0 mm 2 mps 741 mmHg 95%
    13:00 -15°C° 0 mm 2 mps 741 mmHg 95%
    14:00 -15°C° 0 mm 2 mps 741 mmHg 94%
    15:00 -16°C° 0 mm 2 mps 741 mmHg 95%
    16:00 -17°C° 0 mm 2 mps 741 mmHg 95%
    17:00 -18°C° 0 mm 2 mps 741 mmHg 96%
    18:00 -18°C° 0 mm 2 mps 741 mmHg 96%
    19:00 -18°C° 0 mm 2 mps 741 mmHg 97%
    20:00 -17°C° 0 mm 1 mps 741 mmHg 97%
    21:00 -16°C° 0 mm 1 mps 741 mmHg 97%
    22:00 -16°C° 0 mm 1 mps 741 mmHg 97%
    23:00 -16°C° 0 mm 1 mps 741 mmHg 97%

    22 January, Tuesday

    Time Temperature Precipitation Wind Pressure Humidity
    00:00 -16°C° 0 mm 1 mps 741 mmHg 97%
    01:00 -16°C° 0 mm 1 mps 741 mmHg 98%
    02:00 -16°C° 0 mm 1 mps 741 mmHg 98%
    03:00 -16°C° 0 mm 1 mps 741 mmHg 98%
    04:00 -19°C° 0 mm 2 mps 741 mmHg 98%
    05:00 -19°C° 0 mm 2 mps 741 mmHg 98%
    06:00 -19°C° 0 mm 2 mps 741 mmHg 98%
    07:00 -19°C° 0 mm 2 mps 741 mmHg 97%
    08:00 -19°C° 0 mm 2 mps 741 mmHg 97%
    09:00 -18°C° 0 mm 2 mps 742 mmHg 96%
    10:00 -18°C° 0 mm 2 mps 742 mmHg 95%
    11:00 -17°C° 0 mm 2 mps 742 mmHg 94%
    12:00 -17°C° 0 mm 2 mps 742 mmHg 94%
    13:00 -15°C° 0 mm 1 mps 742 mmHg 94%
    14:00 -14°C° 0 mm 1 mps 742 mmHg 94%
    15:00 -16°C° 0 mm 1 mps 742 mmHg 95%
    16:00 -17°C° 0 mm 1 mps 743 mmHg 97%
    17:00 -19°C° 0 mm 1 mps 743 mmHg 98%
    18:00 -19°C° 0 mm 1 mps 743 mmHg 98%
    19:00 -20°C° 0 mm 1 mps 743 mmHg 99%
    20:00 -21°C° 0 mm 1 mps 744 mmHg 99%
    21:00 -21°C° 0 mm 1 mps 744 mmHg 99%
    22:00 -22°C° 0 mm 1 mps 745 mmHg 99%
    23:00 -22°C° 0 mm 1 mps 745 mmHg 99%
    Show more